Regional Weather Roundup
Issued by NWS

Home | Current Version | Previous Version | Graphics & Text | Print | Product List | Glossary On
Versions: 1 2 3 4 5 6 7 8 9 10 11 12 13 14 15 16 17 18 19 20 21 22 23 24 25 26 27 28 29 30 31 32 33 34 35 36 37 38 39 40 41 42 43 44 45 46 47 48 49 50
403
ASUS43 KDTX 271710
RWRMI
MICHIGAN HOURLY REGIONAL WEATHER ROUNDUP
NATIONAL WEATHER SERVICE DETROIT/PONTIAC MI
ISSUED BY NATIONAL WEATHER SERVICE GRAND RAPIDS MI
1200 PM EST MON FEB 27 2017

NOTE: "FAIR" INDICATES FEW OR NO CLOUDS BELOW 12,000 FEET WITH NO
SIGNIFICANT WEATHER AND/OR OBSTRUCTION TO VISIBILITY.

MIZ047>049-052>055-059>063-066>070-074>076-081>083-271800-
SOUTHEAST LOWER MICHIGAN

CITY           SKY/WX    TMP DP  RH WIND       PRES   REMARKS
ADRIAN         SUNNY     44  30  57 SW10      30.23F
ALMA           SUNNY     42  20  43 S6        30.21F
ANN ARBOR      SUNNY     44  28  53 VRB3      30.22F
BAD AXE        SUNNY     40  22  49 SW5       30.23S
DETROIT CITY   SUNNY     47  28  47 VRB6      30.24S
DETROIT        MOSUNNY   47  28  47 VRB3      30.24F
FLINT          SUNNY     44  21  40 SW7       30.23S
GROSSE ILE     SUNNY     44  31  62 S8        30.24S
HILLSDALE      SUNNY     45  28  53 S10       30.20S
HOWELL         MOSUNNY   44  29  56 SW3       30.21F

CITY           SKY/WX    TMP DP  RH WIND       PRES   REMARKS
JACKSON        SUNNY     46  27  47 W6        30.20F
LANSING        SUNNY     45  26  47 VRB3      30.21F
MASON          MOSUNNY   43  32  64 S3        30.21F
MONROE         SUNNY     47  31  53 SW7       30.23F
MT. CLEMENS    MOSUNNY   47  30  51 W8        30.22S
PONTIAC        MOSUNNY   44  28  53 VRB3      30.21S
PORT HOPE        N/A     35  27  72 E6        30.22S WCI  30
PORT HURON     SUNNY     45  27  49 W8        30.24S
TRI CITIES     SUNNY     41  25  53 S8        30.23R
YPSILANTI      SUNNY     45  29  53 S7        30.23F
$$
MIZ043>046-050>051-056>058-064>065-071>073-077>080-271800-
SOUTHWEST LOWER MICHIGAN

CITY           SKY/WX    TMP DP  RH WIND       PRES   REMARKS
BATTLE CREEK   SUNNY     45  29  53 SW7       30.20F
BENTON HARBOR  SUNNY     47  29  49 S12       30.19F
BIG RAPIDS     SUNNY     40  22  48 S7        30.17S
COLDWATER      SUNNY     47  29  49 S5        30.21R
HOLLAND        SUNNY     44  30  57 S9        30.19F
GRAND RAPIDS   MOSUNNY   43  22  43 S6        30.18F
KALAMAZOO      SUNNY     45  27  49 S8        30.20F
MARSHALL       SUNNY     45  28  51 S7        30.20F
MOUNT PLEASANT SUNNY     41  24  52 S6        30.19F
MUSKEGON       MOSUNNY   45  22  40 E10       30.18F
STURGIS        SUNNY     45  32  60 SW7       30.20S
$$
MIZ016>042-271800-
NORTHERN LOWER MICHIGAN

CITY           SKY/WX    TMP DP  RH WIND       PRES   REMARKS
ALPENA         SUNNY     35  19  52 CALM      30.21R
BEAVER ISLAND  PTSUNNY   31  18  57 S8        30.17R WCI  24
BELLAIRE       SUNNY     35  20  54 SW5       30.17S WCI  31
CADILLAC       SUNNY     35  23  62 S7        30.14S WCI  29
CHARLEVOIX     MOSUNNY   32  18  55 S6        30.19F WCI  27
GAYLORD        SUNNY     32  18  56 S10       30.14S WCI  24
HOUGHTON LAKE  SUNNY     37  21  52 SW6       30.17F WCI  32
MANISTEE       SUNNY     39  23  52 S8        30.16F WCI  33
OSCODA         PTSUNNY   38  22  52 SE8       30.21S WCI  32
PELLSTON       SUNNY     31  13  47 S7        30.18R WCI  24
TRAVERSE CITY  SUNNY     38  20  48 VRB3      30.16R
LUDINGTON      SUNNY     40  29  65 SW10      30.16S WCI  33
$$
MIZ007>008-015-271800-
EASTERN UPPER MICHIGAN

CITY           SKY/WX    TMP DP  RH WIND       PRES   REMARKS
KINROSS        SUNNY     30  13  49 S8        30.17S WCI  22
MACKINAC ISLAN SUNNY     28  15  59 S8        30.17S WCI  20
NEWBERRY       MOSUNNY   27  15  60 S9        30.14S WCI  17
S. S. MARIE    MOSUNNY   28  12  51 S9        30.17R WCI  19
$$
MIZ004>006-011>014-085-271800-
CENTRAL UPPER MICHIGAN

CITY           SKY/WX    TMP DP  RH WIND       PRES   REMARKS
MANISTIQUE     CLOUDY    28  17  63 S10G16    30.15S WCI  18
ESCANABA       CLOUDY    32  19  58 SE9       30.14S WCI  24
MENOMINEE      SUNNY     34  23  64 S9        30.13S WCI  27
SAWYER-GWINN   CLOUDY    23  10  58 S10       30.06F WCI  12
$$
MIZ001>003-009>011-084-271800-
WESTERN UPPER MICHIGAN

CITY           SKY/WX    TMP DP  RH WIND       PRES   REMARKS
IRON MOUNTAIN  CLOUDY    27  13  55 S10       30.06S WCI  17
HOUGHTON       LGT SNOW  23  13  65 S10       30.01F WCI  12
COPPER HARBOR    N/A     26  15  63 SW7       30.06R WCI  18
IRONWOOD       PTSUNNY   29  21  72 S10       29.97F WCI  20
$$

ABBREVIATIONS USED IN REMARKS
   TC - TEMPERATURE IN CELSIUS
  WCI - WIND CHILL INDEX
   HX - HEAT INDEX
  VSB - VISIBILITY





USA.gov is the U.S. government's official web portal to all federal, state and local government web resources and services.